GW4803 Weather Reports


time (UTC)temp
F
wind
direction
speed
knots
gust
knots
rain 1hr
in
rain 24hr
in
rain mn
in
humidity
%
barometer
mb
20260506104058 48 54 11.3 17.4 0.00 0.00 0.00 77 1011.4
20260506103557 48 58 10.4 14.8 0.00 0.00 0.00 77 1011.3
20260506103057 48 48 10.4 14.8 0.00 0.00 0.00 76 1011.1
20260506102556 48 42 9.6 13.9 0.00 0.00 0.00 76 1011.4
20260506102055 48 62 8.7 13.9 0.00 0.00 0.00 75 1011.8
20260506102026 48 57 9.6 13.9 0.00 0.00 0.00 75 1011.7
20260506101654 49 46 8.7 13.9 0.00 0.00 0.00 75 1011.8
20260506101053 49 47 9.6 15.6 0.00 0.00 0.00 74 1011.5
20260506100553 49 52 12.2 15.6 0.00 0.00 0.00 73 1011.6
20260506100051 49 34 10.4 14.8 0.00 0.00 0.00 72 1011.8
20260506095552 49 59 8.7 13.0 0.00 0.00 0.00 72 1011.9
20260506095051 49 38 8.7 13.9 0.00 0.00 0.00 71 1012.2
20260506094551 49 42 11.3 15.6 0.00 0.00 0.00 71 1012.3
20260506094050 49 40 9.6 15.6 0.00 0.00 0.00 71 1012.4
20260506093550 49 44 8.7 13.9 0.00 0.00 0.00 71 1012.5
20260506093049 49 58 7.0 12.2 0.00 0.00 0.00 70 1012.1
20260506092548 49 42 8.7 13.9 0.00 0.00 0.00 70 1011.8
20260506092047 49 57 9.6 13.9 0.00 0.00 0.00 69 1011.8
20260506091553 49 51 10.4 13.9 0.00 0.00 0.00 69 1011.7
20260506091046 50 61 7.8 13.0 0.00 0.00 0.00 69 1011.8
20260506090548 50 59 7.8 13.9 0.00 0.00 0.00 69 1011.6
20260506090053 50 56 8.7 15.6 0.00 0.00 0.00 68 1011.7
20260506085544 49 61 11.3 15.6 0.00 0.00 0.00 68 1011.3
20260506085045 50 57 10.4 13.9 0.00 0.00 0.00 67 1011.2
20260506084547 50 55 11.3 13.9 0.00 0.00 0.00 67 1011.1
20260506084043 50 47 7.8 14.8 0.00 0.00 0.00 66 1011.2
20260506083543 50 49 10.4 14.8 0.00 0.00 0.00 66 1010.9
20260506083043 50 34 8.7 15.6 0.00 0.00 0.00 66 1011.1
20260506082543 50 48 9.6 13.0 0.00 0.00 0.00 66 1011.0
20260506082041 49 57 9.6 14.8 0.00 0.00 0.00 65 1011.1
20260506081540 49 65 9.6 13.0 0.00 0.00 0.00 66 1010.9
20260506081041 49 57 8.7 13.9 0.00 0.00 0.00 66 1010.9
20260506080540 49 63 7.8 13.9 0.00 0.00 0.00 67 1010.9
20260506073033 49 27 12.2 16.5 0.00 0.00 0.00 68 1009.8
20260506072534 49 48 10.4 15.6 0.00 0.00 0.00 68 1009.8
20260506072030 49 43 12.2 15.6 0.00 0.00 0.00 68 1009.5
20260506071531 49 49 10.4 13.9 0.00 0.00 0.00 68 1009.4
20260506071031 49 73 9.6 15.6 0.00 0.00 0.00 68 1009.3
20260506070530 49 58 12.2 20.0 0.00 0.00 0.00 68 1009.1
20260506062025 50 50 10.4 17.4 0.00 0.00 0.00 72 1009.2
20260506061524 50 71 9.6 18.2 0.00 0.00 0.00 72 1009.1
20260506061024 49 62 11.3 19.1 0.00 0.00 0.00 72 1009.2
20260506060523 49 63 11.3 19.1 0.00 0.00 0.00 73 1009.3
20260506051015 50 67 13.9 18.2 0.00 0.00 0.00 77 1009.1
20260506050514 50 49 12.2 19.1 0.00 0.00 0.00 77 1009.2
20260506045013 50 60 14.8 20.0 0.00 0.00 0.00 77 1008.9
20260506044512 50 56 13.9 20.0 0.00 0.00 0.00 77 1008.9
20260506044011 50 54 13.0 20.0 0.00 0.00 0.00 77 1008.8
20260506043515 50 63 14.8 20.0 0.00 0.00 0.00 77 1008.7
20260506043014 50 58 14.8 20.9 0.00 0.00 0.00 77 1008.6
20260506042510 50 42 15.6 20.9 0.00 0.00 0.00 78 1008.7
20260506042009 50 46 13.0 20.0 0.00 0.00 0.00 78 1008.7
20260506041509 50 52 12.2 20.0 0.00 0.00 0.00 78 1008.9
20260506041008 50 59 12.2 14.8 0.00 0.00 0.00 78 1008.6
20260506040508 50 37 9.6 18.2 0.00 0.00 0.00 78 1008.8
20260506040008 50 40 10.4 20.0 0.00 0.00 0.00 78 1008.7
20260506035510 50 50 12.2 20.0 0.00 0.00 0.00 78 1008.4
20260506035006 50 45 8.7 17.4 0.00 0.00 0.00 78 1008.8
20260506034517 50 56 12.2 15.6 0.00 0.00 0.00 78 1008.4
20260506034006 50 60 8.7 15.6 0.00 0.00 0.00 78 1008.7
20260506033505 50 53 12.2 15.6 0.00 0.00 0.00 78 1008.4
20260506033005 50 64 11.3 15.6 0.00 0.00 0.00 78 1008.5
20260506032505 50 54 10.4 15.6 0.00 0.00 0.00 79 1008.5
20260506032005 50 62 9.6 13.9 0.00 0.00 0.00 79 1008.4
20260506031502 50 57 10.4 13.9 0.00 0.00 0.00 79 1008.3
20260506031004 50 61 8.7 14.8 0.00 0.00 0.00 78 1008.3
20260506030559 50 57 9.6 14.8 0.00 0.00 0.00 78 1008.1
20260506025600 50 67 12.2 17.4 0.00 0.00 0.00 78 1007.8
20260506025100 50 66 10.4 17.4 0.00 0.00 0.00 78 1007.7
20260506024616 50 60 11.3 14.8 0.00 0.00 0.00 77 1007.6
20260506024055 50 61 12.2 14.8 0.00 0.00 0.00 77 1007.4
20260506023554 50 61 11.3 15.6 0.00 0.00 0.00 77 1007.3
20260506023054 50 45 12.2 15.6 0.00 0.00 0.00 76 1007.3
20260506022553 50 55 10.4 15.6 0.00 0.00 0.00 76 1007.4
20260506022052 51 43 10.4 14.8 0.00 0.00 0.00 76 1007.4
20260506021553 51 54 10.4 13.9 0.00 0.00 0.00 76 1007.3
20260506021051 51 61 8.7 13.9 0.00 0.00 0.00 76 1007.2
20260506020552 51 68 8.7 16.5 0.00 0.00 0.00 75 1007.1
20260506020048 51 59 12.2 16.5 0.00 0.00 0.00 75 1006.8
20260506015550 51 53 12.2 16.5 0.00 0.00 0.00 75 1006.3
20260506015046 51 51 13.0 20.0 0.00 0.00 0.00 75 1006.3
20260506014547 51 61 12.2 20.0 0.00 0.00 0.00 75 1006.0
20260506014047 51 57 11.3 20.0 0.00 0.00 0.00 75 1005.9
20260506013546 51 46 13.0 20.0 0.00 0.00 0.00 75 1006.0
20260506013059 51 57 12.2 18.2 0.00 0.00 0.00 75 1005.8
20260506012543 51 56 13.0 19.1 0.00 0.00 0.00 75 1005.8
20260506012043 51 49 13.0 19.1 0.00 0.00 0.00 76 1005.6
20260506011543 52 42 13.0 19.1 0.00 0.00 0.00 75 1005.6
20260506011041 52 63 13.9 20.0 0.00 0.00 0.00 75 1005.7
20260506010541 52 58 13.9 20.0 0.00 0.00 0.00 75 1005.5
20260506010039 52 55 14.8 22.6 0.00 0.00 0.00 74 1005.3
20260506005538 52 54 13.9 22.6 0.00 0.00 0.00 74 1005.4
20260506005037 52 49 13.9 21.7 0.00 0.00 0.00 74 1005.5
20260506004537 53 49 16.5 25.2 0.00 0.00 0.00 74 1005.6
20260506004036 53 28 16.5 25.2 0.00 0.00 0.00 73 1005.5
20260506003535 53 50 16.5 21.7 0.00 0.00 0.00 73 1005.6
20260506003038 53 49 16.5 24.3 0.00 0.00 0.00 73 1005.6
20260506002534 53 49 16.5 22.6 0.00 0.00 0.00 72 1005.7
20260506002034 53 42 15.6 22.6 0.00 0.00 0.00 72 1005.7
20260506001537 53 36 15.6 20.9 0.00 0.00 0.00 71 1005.6
20260506001032 54 49 15.6 20.9 0.00 0.00 0.00 71 1005.6
20260506000531 54 33 13.0 18.2 0.00 0.00 0.00 71 1005.6
20260506000032 54 46 13.0 18.2 0.00 0.00 0.00 70 1005.7
20260505235530 54 51 13.9 18.2 0.00 0.00 0.00 70 1005.7
20260505235029 54 32 13.9 17.4 0.00 0.00 0.00 69 1005.8
20260505234535 55 28 11.3 17.4 0.00 0.00 0.00 69 1005.9
20260505234029 55 32 11.3 16.5 0.00 0.00 0.00 70 1005.7
20260505233531 55 18 11.3 17.4 0.00 0.00 0.00 70 1005.7
20260505233028 55 46 11.3 17.4 0.00 0.00 0.00 70 1005.7
20260505232527 55 39 12.2 17.4 0.00 0.00 0.00 70 1005.8
20260505232027 55 53 11.3 17.4 0.00 0.00 0.00 70 1005.7
20260505231525 55 11 12.2 17.4 0.00 0.00 0.00 70 1005.6
20260505231026 55 19 11.3 17.4 0.00 0.00 0.00 70 1005.4
20260505230523 55 39 12.2 16.5 0.00 0.00 0.00 70 1005.2
20260505230038 55 27 12.2 17.4 0.00 0.00 0.00 70 1005.4
20260505225523 55 49 13.9 17.4 0.00 0.00 0.00 71 1005.2
20260505225023 55 49 12.2 16.5 0.00 0.00 0.00 71 1005.2
20260505224522 55 33 13.0 17.4 0.00 0.00 0.00 71 1005.3
20260505224023 55 42 13.0 18.2 0.00 0.00 0.00 71 1005.4
20260505223521 55 42 13.9 18.2 0.00 0.00 0.00 70 1005.1
20260505223022 55 34 12.2 18.2 0.00 0.00 0.00 70 1005.1
20260505222522 55 23 14.8 18.2 0.00 0.00 0.00 70 1004.8
20260505222020 55 48 13.9 18.2 0.00 0.00 0.00 70 1004.8
20260505221520 55 35 12.2 16.5 0.00 0.00 0.00 71 1004.9
20260505221019 55 31 11.3 18.2 0.00 0.00 0.00 71 1004.9
20260505220520 55 47 12.2 18.2 0.00 0.00 0.00 72 1005.0
20260505220021 55 53 14.8 18.2 0.00 0.00 0.00 71 1004.8
20260505215521 55 28 12.2 17.4 0.00 0.00 0.00 72 1004.9
20260505215019 55 30 12.2 20.0 0.00 0.00 0.00 72 1004.8
20260505214519 55 42 13.9 20.0 0.00 0.00 0.00 72 1004.9
20260505214018 55 34 12.2 18.2 0.00 0.00 0.00 73 1004.9
20260505213517 55 28 12.2 18.2 0.00 0.00 0.00 73 1005.0
20260505213017 55 36 11.3 17.4 0.00 0.00 0.00 73 1005.0
20260505212521 55 42 12.2 17.4 0.00 0.00 0.00 73 1005.2
20260505212018 55 34 10.4 17.4 0.00 0.00 0.00 73 1005.1
20260505211517 55 42 13.0 17.4 0.00 0.00 0.00 73 1004.9
20260505211016 55 30 12.2 20.0 0.00 0.00 0.00 73 1004.7
20260505210518 55 61 13.9 20.0 0.00 0.00 0.00 72 1004.5
20260505210016 56 28 13.9 19.1 0.00 0.00 0.00 72 1004.2
20260505205517 55 40 11.3 21.7 0.00 0.00 0.00 74 1004.1
20260505205015 55 19 13.0 21.7 0.00 0.00 0.00 74 1004.1
20260505204517 55 43 14.8 20.9 0.00 0.00 0.00 74 1004.3
20260505204014 55 25 15.6 20.9 0.00 0.00 0.00 74 1004.2
20260505203514 55 32 13.9 20.0 0.00 0.00 0.00 74 1004.2
20260505203014 55 15 15.6 20.0 0.00 0.00 0.00 73 1004.1
20260505202514 56 36 13.0 20.0 0.00 0.00 0.00 74 1004.2
20260505202013 55 40 14.8 20.9 0.00 0.00 0.00 75 1004.0
20260505201513 55 36 15.6 20.9 0.00 0.00 0.00 75 1004.2
20260505201013 55 33 14.8 19.1 0.00 0.00 0.00 75 1004.4
20260505200514 54 28 13.9 17.4 0.00 0.00 0.00 76 1004.5
20260505200026 54 35 13.9 18.2 0.00 0.00 0.00 77 1004.6
20260505195512 54 51 12.2 18.2 0.00 0.00 0.00 76 1005.2
20260505195112 55 52 9.6 17.4 0.00 0.00 0.00 77 1004.9
20260505194511 54 9 13.0 19.1 0.00 0.00 0.00 77 1004.3
20260505194012 54 34 14.8 19.1 0.00 0.00 0.00 77 1004.6
20260505193509 55 12 13.0 17.4 0.00 0.00 0.00 76 1005.1
20260505193009 55 24 11.3 19.1 0.00 0.00 0.00 75 1004.8
20260505192507 56 39 13.9 19.1 0.00 0.00 0.00 74 1004.6
20260505192004 56 25 13.9 20.9 0.00 0.00 0.00 72 1004.4
20260505191503 57 34 12.2 23.5 0.00 0.00 0.00 71 1003.9
20260505191001 58 31 15.6 23.5 0.00 0.00 0.00 70 1002.8
20260505190504 59 9 18.2 23.5 0.00 0.00 0.00 69 1002.9
20260505190000 58 17 14.8 21.7 0.00 0.00 0.00 70 1002.8
20260505185603 59 44 16.5 23.5 0.00 0.00 0.00 69 1003.1
20260505185100 58 33 17.4 23.5 0.00 0.00 0.00 69 1002.8
20260505184601 58 355 17.4 25.2 0.00 0.00 0.00 69 1003.0
20260505184100 58 32 17.4 25.2 0.00 0.00 0.00 69 1003.0
20260505183559 58 5 17.4 23.5 0.00 0.00 0.00 69 1003.2
20260505183107 58 25 17.4 25.2 0.00 0.00 0.00 69 1003.1
20260505182558 58 23 18.2 25.2 0.00 0.00 0.00 70 1003.0
20260505182058 58 346 18.2 22.6 0.00 0.00 0.00 69 1003.6
20260505181558 58 35 15.6 20.9 0.00 0.00 0.00 70 1003.6
20260505181058 58 360 14.8 24.3 0.00 0.00 0.00 70 1003.5
20260505180557 58 360 17.4 24.3 0.00 0.00 0.00 70 1003.3
20260505180058 58 342 15.6 24.3 0.00 0.00 0.00 71 1003.0
20260505175557 58 15 15.6 23.5 0.00 0.00 0.00 71 1002.9
20260505175057 58 18 15.6 23.5 0.00 0.00 0.00 70 1003.2
20260505174558 58 5 17.4 23.5 0.00 0.00 0.00 69 1003.2
20260505174055 59 360 16.5 23.5 0.00 0.00 0.00 69 1003.4
20260505173557 58 44 14.8 21.7 0.00 0.00 0.00 70 1003.3
20260505173052 58 21 14.8 23.5 0.00 0.00 0.00 71 1003.3
20260505172551 59 23 17.4 23.5 0.00 0.00 0.00 69 1003.0
20260505172050 59 40 17.4 21.7 0.00 0.00 0.00 67 1002.8
20260505171548 60 28 12.2 23.5 0.00 0.00 0.00 68 1002.6
20260505171149 60 5 14.8 23.5 0.00 0.00 0.00 67 1002.4
20260505170548 60 5 13.9 22.6 0.00 0.00 0.00 64 1002.5
20260505170047 60 5 14.8 21.7 0.00 0.00 0.00 65 1002.2
20260505165546 61 5 13.9 21.7 0.00 0.00 0.00 66 1002.2
20260505165045 60 5 14.8 24.3 0.00 0.00 0.00 67 1002.1
20260505164557 60 19 18.2 24.3 0.00 0.00 0.00 66 1001.9
20260505164044 61 9 15.6 22.6 0.00 0.00 0.00 66 1001.7
20260505163543 61 15 14.8 23.5 0.00 0.00 0.00 66 1001.7
20260505163051 61 15 15.6 23.5 0.00 0.00 0.00 68 1001.8
20260505162547 61 38 15.6 23.5 0.00 0.00 0.00 67 1002.0
20260505162042 61 351 15.6 21.7 0.00 0.00 0.00 67 1001.8
20260505161544 61 347 15.6 20.9 0.00 0.00 0.00 67 1001.6
20260505161041 61 355 15.6 20.0 0.00 0.00 0.00 68 1001.4
20260505160539 61 9 13.0 20.9 0.00 0.00 0.00 69 1001.4
20260505153047 61 44 18.2 24.3 0.00 0.00 0.00 70 1000.5
20260505152532 61 5 17.4 23.5 0.00 0.00 0.00 69 1000.4
20260505152032 61 351 18.2 24.3 0.00 0.00 0.00 69 1000.4
20260505151541 62 355 17.4 24.3 0.00 0.00 0.00 69 1000.2
20260505151030 62 355 16.5 25.2 0.00 0.00 0.00 69 1000.1
20260505150529 62 24 16.5 25.2 0.00 0.00 0.00 71 1000.0
20260505140518 64 355 17.4 26.1 0.00 0.00 0.00 75 998.2
20260505125002 63 344 7.8 15.6 0.00 0.00 0.00 61 996.6
20260505124502 63 329 8.7 15.6 0.00 0.00 0.00 56 996.6
20260505124100 63 320 10.4 13.0 0.00 0.00 0.00 59 996.6
20260505123559 63 296 7.0 8.7 0.00 0.00 0.00 65 996.4
20260505123106 64 282 6.1 7.8 0.00 0.00 0.00 64 996.1
20260505122559 65 283 4.3 7.8 0.00 0.00 0.00 61 995.8
20260505122055 65 255 3.5 7.8 0.00 0.00 0.00 60 995.7
20260505121554 66 279 5.2 7.8 0.00 0.00 0.00 60 995.6
20260505121053 66 264 5.2 7.8 0.00 0.00 0.00 60 995.5
20260505120552 66 250 2.6 5.2 0.00 0.00 0.00 59 995.4
20260505120053 67 231 3.5 7.0 0.00 0.00 0.00 58 995.2
20260505115555 67 229 3.5 9.6 0.00 0.00 0.00 58 995.1
20260505115052 67 231 4.3 9.6 0.00 0.00 0.00 58 995.2
20260505114552 67 208 4.3 7.0 0.00 0.00 0.00 58 995.1
20260505114055 68 217 2.6 6.1 0.00 0.00 0.00 58 995.0
20260505113556 68 225 3.5 8.7 0.00 0.00 0.00 57 995.0
20260505113058 68 209 6.1 10.4 0.00 0.00 0.00 57 994.9
20260505112552 68 198 6.1 10.4 0.00 0.00 0.00 59 994.8
20260505112051 68 215 5.2 10.4 0.00 0.00 0.00 60 994.8
20260505111555 67 196 7.0 10.4 0.00 0.00 0.00 61 994.8
20260505111051 67 215 4.3 9.6 0.00 0.00 0.00 62 994.8
20260505110550 67 213 4.3 9.6 0.00 0.00 0.00 62 994.7